TimeAKDT,TemperatureF,Dew PointF,Humidity,Sea Level PressureIn,VisibilityMPH,Wind Direction,Wind SpeedMPH,Gust SpeedMPH,PrecipitationIn,Events,Conditions,WindDirDegrees,DateUTC
12:53 AM,51.1,44.1,77,29.95,10.0,South,5.8,17.3,0.01,,Overcast,190,2013-06-04 08:53:00
1:53 AM,50.0,44.1,80,29.95,10.0,Variable,3.5,-,0.01,Rain,Light Rain,0,2013-06-04 09:53:00
2:53 AM,48.0,45.0,89,29.94,10.0,Calm,Calm,-,0.00,Rain,Light Rain,0,2013-06-04 10:53:00
3:53 AM,48.9,45.0,86,29.93,10.0,Calm,Calm,-,0.00,Rain,Light Rain,0,2013-06-04 11:53:00
4:00 AM,48.2,44.6,87,29.93,10.0,Calm,Calm,-,0.00,Rain,Light Rain,0,2013-06-04 12:00:00
4:53 AM,48.0,45.0,89,29.94,10.0,Variable,3.5,-,0.01,Rain,Light Rain,0,2013-06-04 12:53:00
5:25 AM,48.2,46.4,93,29.93,10.0,Calm,Calm,-,0.01,Rain,Light Rain,0,2013-06-04 13:25:00
5:34 AM,48.2,46.4,93,29.93,10.0,Calm,Calm,-,0.01,Rain,Light Rain,0,2013-06-04 13:34:00
5:53 AM,48.9,45.0,86,29.94,10.0,Calm,Calm,-,0.01,Rain,Light Rain,0,2013-06-04 13:53:00
6:53 AM,51.1,43.0,74,29.91,10.0,SSW,12.7,23.0,0.00,,Overcast,200,2013-06-04 14:53:00
7:53 AM,51.1,44.1,77,29.92,10.0,ENE,5.8,-,0.00,,Overcast,60,2013-06-04 15:53:00
8:53 AM,50.0,43.0,77,29.93,10.0,SW,8.1,-,0.00,,Overcast,230,2013-06-04 16:53:00
9:53 AM,53.1,44.1,71,29.91,10.0,SSW,16.1,-,0.01,,Overcast,200,2013-06-04 17:53:00
10:53 AM,55.9,45.0,67,29.89,10.0,SSW,19.6,27.6,N/A,,Mostly Cloudy,200,2013-06-04 18:53:00
11:53 AM,55.9,44.1,64,29.90,10.0,SSW,20.7,27.6,0.00,,Mostly Cloudy,200,2013-06-04 19:53:00
12:53 PM,55.0,44.1,67,29.89,10.0,SSW,24.2,31.1,N/A,,Scattered Clouds,200,2013-06-04 20:53:00
1:53 PM,54.0,44.1,69,29.91,10.0,SSW,21.9,27.6,0.00,Rain,Light Rain,210,2013-06-04 21:53:00
2:53 PM,55.9,42.1,60,29.88,10.0,SSW,16.1,-,0.00,,Mostly Cloudy,200,2013-06-04 22:53:00
3:53 PM,55.9,41.0,57,29.88,10.0,SSW,25.3,31.1,N/A,,Mostly Cloudy,200,2013-06-04 23:53:00
4:53 PM,55.9,39.9,55,29.88,10.0,SSW,20.7,28.8,N/A,,Overcast,200,2013-06-05 00:53:00
5:53 PM,55.0,39.9,57,29.87,10.0,SSW,20.7,25.3,N/A,,Mostly Cloudy,210,2013-06-05 01:53:00
6:53 PM,53.1,39.0,59,29.88,10.0,SSW,19.6,-,N/A,,Partly Cloudy,210,2013-06-05 02:53:00
7:53 PM,52.0,39.0,61,29.88,10.0,SSW,24.2,32.2,N/A,,Partly Cloudy,210,2013-06-05 03:53:00
8:53 PM,52.0,37.9,59,29.89,10.0,SSW,17.3,26.5,N/A,,Partly Cloudy,210,2013-06-05 04:53:00
9:53 PM,52.0,37.9,59,29.91,10.0,South,12.7,-,N/A,,Overcast,190,2013-06-05 05:53:00
10:53 PM,51.1,37.9,61,29.91,10.0,SSW,18.4,25.3,N/A,,Overcast,210,2013-06-05 06:53:00
11:53 PM,51.1,37.9,61,29.92,10.0,SSW,12.7,21.9,N/A,,Overcast,200,2013-06-05 07:53:00